"Pseudo-MPEC" for HKmOc01

Created 2022 Aug 20 11:22:09 UT using Find_Orb

Click here for an explanation of pseudo-MPECs

 
 Astrometry: 
     HKmOc01*KC2022 07 27[jhOrkVN;VPZB$!kI[6c*0oupjAstrometryhOsJredacted;s;y221
     HKmOc01 KC2022 07 2754Ek:!Ft?hxtZGVpe:4clickiP$X%w(y9[h'4w@5D:/2l)ln9bYT221
     HKmOc01 KC2022 07 27BmwrLURI7+heresswy-ufortw?h,+[5x)O:b]7/4c5j;9'FUTt-.221
     HKmOc01 KC2022 07 28'((X!Jd,+T*4]yPt6:.yOxoBZ;x45_Bqg$OhOnt4Y#_2-YHGg!Q@221
     HKmOc01 KC2022 07 28psTfKh!0explanationeLQCV?rJna'de9qxas?$9gQmS#6.g![?x221

Station data:
(221) IAS Observatory, Hakos  (S23.236367 E16.361700)  Namibia.  Observers D.
   Husar, L. Demetz. Measurer D. Husar. 0.2-m f/3 Riccardi-Honders + CCD0.5-m
   f/6.8 Corrected Dall-Kirkham + CCD.

Orbital elements:  HKmOc01
   Perihelion 2022 Nov 2.52653 +/- 1.77 TT = 12:38:12 (JD 2459886.02653)
Epoch 2022 Jul 28.0 TT = JDT 2459788.5   Earth MOID: 0.0049   AutoNEOCP
M 266.10688688 +/- 2.7              (J2000 ecliptic)
n   0.96274433 +/- 0.011            Peri.   65.02134 +/- 26
a   1.01577004 +/- 0.00775          Node   344.09518 +/- 22
e   0.0911926 +/- 0.0152            Incl.    0.56697 +/- 0.27
P   1.02/373.92d           H 27.6   G  0.15   U  9.7
q 0.92313925 +/- 0.0222    Q 1.10840083 +/- 0.00809
From 5 observations 2022 July 27-28 (25.2 hr); mean residual 0".67
Residuals in arcseconds: 
220727 221  .64+  .88-    220727 221  .38-  .70+    220728 221  .30-  1.1+    
220727 221  .26-  .20+    220728 221  .31+  1.1-    

Ephemerides (geocentric):
Date (UTC) HH   RA             Dec           delta  r     elong  mag " sig PA
---- --------  ------------   ------------  ------ ------ -----  --- --------
2022 08 20 11  08 33 29.725   +16 22 53.42  .01991 0.9933  20.6 29?? 2308  54
2022 08 20 12  08 33 41.171   +16 24 59.51  .01997 0.9932  20.6 29?? 2293  54
2022 08 20 13  08 33 52.559   +16 27 04.76  .02004 0.9931  20.6 29?? 2278  54
2022 08 20 14  08 34 03.890   +16 29 09.19  .02010 0.9931  20.6 29?? 2263  54
2022 08 20 15  08 34 15.165   +16 31 12.80  .02016 0.9930  20.6 29?? 2248  54
2022 08 20 16  08 34 26.384   +16 33 15.59  .02022 0.9929  20.6 29?? 2234  54
2022 08 20 17  08 34 37.547   +16 35 17.58  .02028 0.9929  20.7 29?? 2219  54
2022 08 20 18  08 34 48.655   +16 37 18.77  .02034 0.9928  20.7 29?? 2205  54
2022 08 20 19  08 34 59.708   +16 39 19.17  .02041 0.9927  20.7 29?? 2191  54
2022 08 20 20  08 35 10.708   +16 41 18.79  .02047 0.9927  20.7 29?? 2176  54
2022 08 20 21  08 35 21.653   +16 43 17.63  .02053 0.9926  20.7 29?? 2162  54
2022 08 20 22  08 35 32.545   +16 45 15.69  .02059 0.9926  20.7 29?? 2148  54
2022 08 20 23  08 35 43.385   +16 47 12.99  .02065 0.9925  20.7 29?? 2134  54
2022 08 21 00  08 35 54.172   +16 49 09.53  .02071 0.9924  20.7 29?? 2120  54
2022 08 21 01  08 36 04.907   +16 51 05.32  .02078 0.9924  20.7 29?? 2106  54
2022 08 21 02  08 36 15.590   +16 53 00.36  .02084 0.9923  20.7 29?? 2093  54
2022 08 21 03  08 36 26.222   +16 54 54.67  .02090 0.9922  20.7 29?? 2079  54
2022 08 21 04  08 36 36.804   +16 56 48.23  .02096 0.9922  20.7 29?? 2066  54
2022 08 21 05  08 36 47.335   +16 58 41.07  .02102 0.9921  20.7 29?? 2052  54
2022 08 21 06  08 36 57.816   +17 00 33.19  .02108 0.9920  20.7 29?? 2039  55
2022 08 21 07  08 37 08.248   +17 02 24.60  .02115 0.9920  20.7 29?? 2025  55
2022 08 21 08  08 37 18.630   +17 04 15.29  .02121 0.9919  20.7 29?? 2012  55
2022 08 21 09  08 37 28.964   +17 06 05.28  .02127 0.9918  20.7 29?? 1999  55
2022 08 21 10  08 37 39.249   +17 07 54.57  .02133 0.9918  20.7 29?? 1986  55
2022 08 21 11  08 37 49.487   +17 09 43.17  .02139 0.9917  20.7 29?? 1973  55
2022 08 21 12  08 37 59.676   +17 11 31.08  .02146 0.9916  20.7 29?? 1960  55
2022 08 21 13  08 38 09.819   +17 13 18.31  .02152 0.9916  20.7 29?? 1947  55
2022 08 21 14  08 38 19.915   +17 15 04.86  .02158 0.9915  20.7 29?? 1934  55
2022 08 21 15  08 38 29.964   +17 16 50.74  .02164 0.9914  20.7 29?? 1922  55
2022 08 21 16  08 38 39.967   +17 18 35.96  .02171 0.9914  20.7 29?? 1909  55
2022 08 21 17  08 38 49.924   +17 20 20.51  .02177 0.9913  20.8 29?? 1897  55
2022 08 21 18  08 38 59.836   +17 22 04.42  .02183 0.9912  20.8 29?? 1884  55
2022 08 21 19  08 39 09.703   +17 23 47.67  .02189 0.9912  20.8 29?? 1872  55
2022 08 21 20  08 39 19.525   +17 25 30.28  .02196 0.9911  20.8 29?? 1860  55
2022 08 21 21  08 39 29.303   +17 27 12.25  .02202 0.9911  20.8 29?? 1847  55
2022 08 21 22  08 39 39.037   +17 28 53.58  .02208 0.9910  20.8 29?? 1835  55
2022 08 21 23  08 39 48.727   +17 30 34.29  .02214 0.9909  20.8 29?? 1823  55
2022 08 22 00  08 39 58.374   +17 32 14.37  .02220 0.9909  20.8 29?? 1811  55
2022 08 22 01  08 40 07.978   +17 33 53.83  .02227 0.9908  20.8 29?? 1799  55
2022 08 22 02  08 40 17.539   +17 35 32.68  .02233 0.9907  20.8 29?? 1787  55
2022 08 22 03  08 40 27.058   +17 37 10.92  .02239 0.9907  20.8 29?? 1776  55
2022 08 22 04  08 40 36.534   +17 38 48.55  .02245 0.9906  20.9 29?? 1764  55
2022 08 22 05  08 40 45.969   +17 40 25.59  .02252 0.9905  20.9 29?? 1752  55
2022 08 22 06  08 40 55.363   +17 42 02.03  .02258 0.9905  20.9 29?? 1741  55
2022 08 22 07  08 41 04.716   +17 43 37.87  .02264 0.9904  20.9 29?? 1729  55
2022 08 22 08  08 41 14.028   +17 45 13.13  .02271 0.9903  20.9 29?? 1718  55
2022 08 22 09  08 41 23.299   +17 46 47.81  .02277 0.9903  20.9 29?? 1706  55
2022 08 22 10  08 41 32.530   +17 48 21.91  .02283 0.9902  20.9 29?? 1695  56